STARLINK-34590

Last updated on Sat Jul 19 2025 00:02:08 GMT+0000 (Coordinated Universal Time)

1 64675U 25139M 25199.58335648 .00033974 00000+0 61683-3 0 9998 2 64675 53.1592 138.1497 0000735 97.3383 100.0708 15.49282179 4385
UTC large
Height (km)
Speed (km/s)
/
Latitude / Longitude
Inclination (degrees)
Orbital Period (minutes)
Azimuth
Elevation
Range (km)
Doppler Factor

Next 0 passes for location: London (51.5072 / 0.1276)

Sorry there are no passes over London.